Location: Newark
(33.1119°N, 7.4058°W)
Time: 10:53:49
(UTC+00:00)

Envisat - Visible Passes

Search period start: 14 November 2019 00:00
Search period end: 24 November 2019 00:00
Orbit: 764 x 766 km, 98.1° (Epoch: 14 November)

Date Brightness Start Highest point End Pass type
(mag) Time Alt. Az. Time Alt. Az. Time Alt. Az.
14 Nov 3.0 18:39:45 10° SSE 18:44:49 86° WSW 18:49:56 10° NNW visible
15 Nov 3.4 18:03:29 10° SE 18:08:11 39° ENE 18:12:53 10° N visible
15 Nov 5.6 19:43:46 10° SW 19:47:17 19° W 19:50:49 10° NW visible
16 Nov 6.0 06:17:30 10° NE 06:21:06 19° E 06:24:40 10° SE visible
16 Nov 4.1 19:05:30 10° S 19:10:20 45° W 19:15:12 10° NNW visible
17 Nov 2.9 18:28:31 10° SSE 18:33:34 74° ENE 18:38:38 10° N visible
18 Nov 3.7 17:52:35 10° SE 17:56:59 31° ENE 18:01:24 10° N visible
18 Nov 5.2 19:31:52 10° SSW 19:35:56 24° W 19:40:03 10° NW visible
19 Nov 6.1 06:06:56 10° ENE 06:09:45 15° E 06:12:31 10° SE visible
19 Nov 3.6 18:54:03 10° S 18:59:03 59° W 19:04:04 10° NNW visible
20 Nov 3.0 18:17:23 10° SSE 18:22:20 57° ENE 18:27:18 10° N visible
20 Nov 6.1 19:59:25 10° WSW 20:01:38 13° W 20:03:52 10° WNW visible
21 Nov 5.4 06:31:06 10° NE 06:35:25 28° E 06:39:42 10° SSE visible
21 Nov 4.8 19:20:08 10° SSW 19:24:37 31° W 19:29:07 10° NW visible
22 Nov 6.5 05:57:03 10° ENE 05:58:22 11° E 05:59:41 10° ESE visible
22 Nov 3.1 18:42:42 10° S 18:47:46 78° WSW 18:52:51 10° NNW visible
23 Nov 3.3 18:06:20 10° SE 18:11:06 43° ENE 18:15:54 10° N visible
23 Nov 5.7 19:47:02 10° SW 19:50:16 17° W 19:53:31 10° NW visible
